Regional Weather Roundup
Issued by NWS

Home | Current Version | Previous Version | Text Only | Print | Product List | Glossary On
Versions: 1 2 3 4 5 6 7 8 9 10 11 12 13 14 15 16 17 18 19 20 21 22 23 24 25 26 27 28 29 30 31 32 33 34 35 36 37 38 39 40 41 42 43 44 45 46 47 48 49 50
000
ASUS46 KLOX 301913
RWRCA

SOUTHERN CALIFORNIA WEATHER ROUNDUP
NATIONAL WEATHER SERVICE OXNARD CALIFORNIA
1200 PM PDT SAT MAY 30 2015

NOTE: "FAIR" INDICATES FEW OR NO CLOUDS BELOW 12,000 FEET WITH NO
SIGNIFICANT WEATHER AND/OR OBSTRUCTIONS TO VISIBILITY.

  -  STATIONS PRECEEDED BY AN ASTERISK (*) ARE NOT NWS OR FAA
     STATIONS AND ARE NOT SUBJECT TO NWS AND FAA QUALITY CONTROL.

CAZ041-042-087-302000-
LA AND ORANGE COUNTY COASTAL AREAS


CITY           SKY/WX    TMP DP  RH WIND       PRES   REMARKS
L.A. DOWNTOWN  SUNNY     74  59  59 MISG      29.95F HAZE
L.A. AIRPORT   MOSUNNY   64  58  80 W9        29.98S
LONG BEACH     MOSUNNY   67  58  72 S6        29.97S HAZE

CITY           SKY/WX    TMP DP  RH WIND       PRES   REMARKS
AVALON           N/A    N/A N/A N/A MISG        N/A
FULLERTON      SUNNY     73  56  54 S6        29.95F
*GETTY CENTER    N/A     70  57  64 S6          N/A
HAWTHORNE      SUNNY     70  57  63 VRB5      29.97S
*LOS ALAMITOS  PTSUNNY   69  60  73 SW8       29.97S HAZE
*REDONDO BEACH   N/A     68  58  69 W3        29.98R
SANTA ANA      MOSUNNY   69  57  65 SW8       29.97S
STA MONICA APT MOSUNNY   65  57  75 SW7       29.98S
TORRANCE       MOSUNNY   73  61  64 NW12      29.97F HAZE
*UCLA            N/A     68  54  60 S5        29.94S

$$

CAZ547-548-048-302000-
LA COUNTY VALLEYS AND INLAND EMPIRE


CITY           SKY/WX    TMP DP  RH WIND       PRES   REMARKS
BURBANK        SUNNY     77  57  50 SE10      29.95S
VAN NUYS       MOSUNNY   83  55  38 VRB6      29.94F

CITY           SKY/WX    TMP DP  RH WIND       PRES   REMARKS
CORONA AIRPORT CLEAR     80  59  48 W10       29.95F
*CHATSWORTH      N/A     83  55  36 E3        29.92F
CHINO          MOSUNNY   84  57  39 VRB6      29.95F
MARCH AFB      MOSUNNY   87  52  30 NW9       29.96S
*NORTHRIDGE      N/A     81  50  34 SE3         N/A
ONTARIO        PTSUNNY   81  56  42 SW7       29.95F
*PASADENA        N/A     79  63  57 E2          N/A
POMONA         SUNNY     75  55  50 W9        29.99F HAZE
RIVERSIDE      MOSUNNY   82  57  42 VRB5      29.94F HAZE
SAN BERNARDINO CLOUDY    84  50  30 W6        29.95F HAZE
*WHITEMAN AP   NOT AVBL
*WOODLAND HILL   N/A     86  54  32 NE5         N/A

$$

CAZ054-055-302000-
LA AND SAN BERNARDINO COUNTY MOUNTAINS


CITY           SKY/WX    TMP DP  RH WIND       PRES   REMARKS
*BIG BEAR AIRP PTCLDY    72  30  21 W6        30.27S
SANDBERG       SUNNY     87  19   8 S13       30.13S

$$

CAZ028-029-059-060-099-302000-
ANTELOPE VALLEY AND SURROUNDING AREAS


CITY           SKY/WX    TMP DP  RH WIND       PRES   REMARKS
LANCASTER      SUNNY     93  23   8 S9        29.97F
PALMDALE       SUNNY     91  29  11 VRB3      29.99F

CITY           SKY/WX    TMP DP  RH WIND       PRES   REMARKS
29 PALMS       SUNNY     93  40  15 SE10G17   30.02F
BARSTOW/DAGGET SUNNY     96  32  10 NE12      29.93F HX  90
BISHOP         MOSUNNY   90  26  10 S13G23    30.02F
CHINA LAKE     MOSUNNY   96  22   7 S12G18    29.95F HX  90
EDWARDS AFB    CLOUDY    91  19   7 SW3       29.96F
MOJAVE         FAIR      90  18   7 S9        30.00F
NEEDLES        SUNNY    102  26   7 SE8       29.90F HX  95
VICTORVILLE    MOSUNNY   93  23   8 S14       30.00F

$$

CAZ039-040-302000-
VENTURA AND SANTA BARBARA COUNTY COAST


CITY           SKY/WX    TMP DP  RH WIND       PRES   REMARKS
CAMARILLO      SUNNY     70  57  63 SW10      29.95F
OXNARD AIRPORT MOSUNNY   65  56  72 SW9       29.96S
*POINT MUGU    PTSUNNY   68  57  68 S10       29.97S
SBA APT/GOLETA PTSUNNY   62  55  77 S7        29.97R
*SANTA BARBARA   N/A     65  55  68 NW3       30.05S
*VENTURA         N/A     72  58  62 SW10      29.56S

$$

CAZ044-045-302000-
VENTURA COUNTY VALLEYS


CITY           SKY/WX    TMP DP  RH WIND       PRES   REMARKS
*SIMI VALLEY     N/A     83  58  42 SW3       29.88F
*OJAI            N/A     87  59  38 W3        29.86F
*FILLMORE        N/A     84  61  45 CALM      29.83F

$$

CAZ053-302000-
VENTURA COUNTY MOUNTAINS


CITY           SKY/WX    TMP DP  RH WIND       PRES   REMARKS

$$

CAZ034-035-036-302000-
CENTRAL COAST AND SANTA YNEZ VALLEY


CITY           SKY/WX    TMP DP  RH WIND       PRES   REMARKS
SAN LUIS OBISP SUNNY     72  53  51 NW13      29.95S
SANTA MARIA    MOSUNNY   71  55  56 NW10      29.96S

CITY           SKY/WX    TMP DP  RH WIND       PRES   REMARKS
*CAL POLY SLO    N/A     70  55  60 W5          N/A
*LOMPOC        SUNNY     66  52  59 W15       29.98S
*PISMO BEACH     N/A     57  52  85 SW10      29.99R
*SANTA YNEZ    FAIR      77  48  36 W9        29.94F

$$

CAZ037-038-051-302000-
SAN LUIS OBISPO COUNTY INTERIOR AND CUYAMA VALLEY


CITY           SKY/WX    TMP DP  RH WIND       PRES   REMARKS
*CUYAMA          N/A     87  39  17 NE3       29.83F
PASO ROBLES    SUNNY     82  46  28 VRB5      29.91F

$$

CAZ032-033-061-302000-
SOUTHERN DESERTS


CITY           SKY/WX    TMP DP  RH WIND       PRES   REMARKS
BLYTHE         SUNNY     97  31   9 VRB6      29.89F HX  91
IMPERIAL       SUNNY     93  44  18 NE3       29.87F
PALM SPRINGS   MOSUNNY   94  44  17 VRB6      29.92F HX  90
THERMAL        SUNNY     94  34  12 VRB7      29.87F

$$

ELSEWHERE ACROSS THE WESTERN UNITED STATES AND MEXICO


CITY           SKY/WX    TMP DP  RH WIND       PRES   REMARKS
DENVER, CO     MOSUNNY   68  47  46 E12G17    30.25F
GRAND CANYON,  MOSUNNY   78  27  15 MISG      30.29S
HONOLULU, HI   MOSUNNY   81  64  57 E9        29.98R
KAHULUI, MAUI  MOSUNNY   81  68  65 N12       30.00R
LAKE TAHOE, CA PTSUNNY   73  37  27 VRB6      30.17S
LAS VEGAS, NV  MOSUNNY   95  26   8 SE7       29.93F
MAMMOTH LAKES, FAIR      77  25  14 E6        30.24S
MEXICO CITY, M CLOUDY    70  48  46 N7        30.28F
PHOENIX, AZ    MOSUNNY   96  34  11 N5        29.90F HX  91
PORTLAND, OR   PTSUNNY   64  49  57 W7        29.97F
RENO, NV       PTSUNNY   84  25  11 VRB5      30.05F
SALT LAKE CITY PTSUNNY   79  41  25 S15G21    30.08F
SAN DIEGO, CA  CLOUDY    63  57  81 SW5       30.00F
SAN FRANCISCO, PTSUNNY   60  50  69 NW13      29.97F
SAN JOSE, CA   PTSUNNY   64  53  67 NW7       29.96F
SEATTLE, WA    MOSUNNY   60  46  59 SW8       29.98S
TIJUANA, MEX   PTSUNNY   66  54  63 W9        30.01S FOG

$$

STATION/POSITION TIME  TEMP    WIND        PRES    VSBY  WAVE
                       AIR SEA DIR/SP/G                  HT/PER
                 (UTC) (F)     (DEG/KT/KT) (MB)    (MI)  (FT/S)
POINT ARGUELLO B NOT AVBL
WEST SANTA BARBA 1850   55 59  320/  8/  8 1014.7S         4/13
POINT CONCEPTION NOT AVBL
EAST SANTA BARBA 1800   57 60  120/  2/  2 1015.5R
SANTA MONICA BAY 1850   59 64  160/  6/  8 1015.2R         3/13



USA.gov is the U.S. government's official web portal to all federal, state and local government web resources and services.